Regional Weather Roundup
Issued by NWS

Home | Current Version | Previous Version | Text Only | Print | Product List | Glossary Off
Versions: 1 2 3 4 5 6 7 8 9 10 11 12 13 14 15 16 17 18 19 20 21 22 23 24 25 26 27 28 29 30 31 32 33 34 35 36 37 38 39 40 41 42 43 44 45 46 47 48 49 50

468
ASUS43 KOAX 181410
RWRNE

WEATHER ROUNDUP FOR NEBRASKA
NATIONAL WEATHER SERVICE OMAHA NE
800 AM CST SAT NOV 18 2017

NOTES: SATELLITE DATA IS BEING USED TO AUGMENT CLOUD COVER ABOVE
       12000 FEET.
       "FAIR" INDICATES FEW OR NO CLOUDS BELOW 12,000 FEET WITH NO
       SIGNIFICANT WEATHER AND/OR OBSTRUCTIONS TO VISIBILITY.


NEZ001>004-019>022-054>056-181500-
NEBRASKA PANHANDLE

CITY           SKY/WX    TMP DP  RH WIND       PRES   REMARKS
SCOTTSBLUFF    CLEAR     25  18  74 W9        30.19R WCI  15
ALLIANCE       CLEAR     24  19  81 NW15      30.14R WCI  11
CHADRON        CLEAR     26  20  77 W9        30.16R WCI  17
GORDON         FAIR      29  24  79 W13       30.10R WCI  19
KIMBALL        CLEAR     26  20  78 NW15      30.16R WCI  14
SIDNEY         CLEAR     26  18  71 NW9       30.16R WCI  17
$$

NEZ057>060-069>072-079>082-181500-
SOUTHWEST NEBRASKA

CITY           SKY/WX    TMP DP  RH WIND       PRES   REMARKS
NORTH PLATTE   CLEAR     35  29  78 NW16      30.09R WCI  25
IMPERIAL       CLEAR     33  25  72 NW16      30.14R WCI  23
LEXINGTON      CLEAR     37  33  87 NW13      30.05R WCI  28
MCCOOK         CLEAR     35  31  85 NW14      30.09R WCI  26
OGALLALA       CLEAR     33  26  73 NW17      30.13R WCI  23
$$

NEZ005>010-023>029-035>040-094-181500-
NORTH CENTRAL NEBRASKA

CITY           SKY/WX    TMP DP  RH WIND       PRES   REMARKS
VALENTINE      CLEAR     35  27  72 NW14      30.06R WCI  26
AINSWORTH      CLEAR     33  30  89 NW10      30.04R WCI  25
BROKEN BOW     CLEAR     37  32  82 NW21G29   30.02R WCI  26
O`NEILL        CLEAR     36  34  93 NW18      29.98R WCI  25
ORD            PTCLDY    38  35  89 NW20      29.98R WCI  28
THEDFORD       CLEAR     33  29  86 NW10G17   30.08R WCI  25
$$

NEZ041-046>049-061>064-073>077-083>087-181500-
SOUTH CENTRAL NEBRASKA

CITY           SKY/WX    TMP DP  RH WIND       PRES   REMARKS
GRAND ISLAND   CLOUDY    39  36  89 NW21      29.96R WCI  29
AURORA         CLOUDY    39  36  87 NW16      29.95R WCI  30
HASTINGS       CLOUDY    39  35  86 NW22      29.96R WCI  29
HEBRON         CLOUDY    41  34  77 NW15      29.92R
HOLDREGE       PTCLDY    37  36  93 NW17G24   30.00R WCI  28
KEARNEY        CLOUDY    38  35  89 NW16      29.99R WCI  29
YORK           MOCLDY    39  37  93 NW17      29.93R WCI  30
$$

NEZ011>018-030>034-042>045-181500-
NORTHEAST NEBRASKA

CITY           SKY/WX    TMP DP  RH WIND       PRES   REMARKS
NORFOLK        CLOUDY    37  32  82 NW17G26   29.91R WCI  27
ALBION         MOCLDY    39  35  85 NW15      29.94R WCI  31
BLAIR          CLOUDY    37  32  82 NW17G26   29.85R WCI  27
COLUMBUS       CLOUDY    38  33  82 NW20      29.92R WCI  28
FREMONT        CLOUDY    37  30  76 NW17G26   29.89R WCI  27
TEKAMAH        MOCLDY    36  29  75 NW16      29.88R WCI  26
WAYNE          MOCLDY    35  30  80 NW12G17   29.90R WCI  27
$$

NEZ050>053-065>068-078-088>093-181500-
SOUTHEAST NEBRASKA

CITY           SKY/WX    TMP DP  RH WIND       PRES   REMARKS
LINCOLN        CLOUDY    39  29  67 N21       29.90R WCI  29
OMAHA EPPLEY   CLOUDY    38  32  79 N16G28    29.85R WCI  29
BEATRICE       CLOUDY    40  35  83 NW18G25   29.88R WCI  31
FALLS CITY     CLOUDY    41  38  89 NW17G23   29.78R
NEBRASKA CITY  CLOUDY    38  38 100 N20G26    29.83R WCI  28
PLATTSMOUTH    CLOUDY    38  35  89 NW23      29.84R WCI  27
$$

NEZ044-045-051>053-067-181500-
OMAHA AREA

CITY           SKY/WX    TMP DP  RH WIND       PRES   REMARKS
OMAHA EPPLEY   CLOUDY    38  32  79 N16G28    29.85R WCI  29
BLAIR          CLOUDY    37  32  82 NW17G26   29.85R WCI  27
FREMONT        CLOUDY    37  30  76 NW17G26   29.89R WCI  27
MILLARD        CLOUDY    40  33  76 NW15G24   29.86R WCI  31
OFFUTT AFB     CLOUDY    38  32  78 NW21G30   29.84R WCI  28
PLATTSMOUTH    CLOUDY    38  35  89 NW23      29.84R WCI  27
WAHOO          FAIR      37  30  74 NW21G28   29.88R WCI  27
$$




USA.gov is the U.S. government's official web portal to all federal, state and local government web resources and services.